Home   Weather   Carson City   Past weeks

Flag for USA Past Weather in Carson City, Nevada, USA — Yesterday and Last 2 Weeks

Now
59 °F

Clear.


Feels Like: 59 °F
Forecast: 50 / 86 °F
Wind: 5 mph from Southeast

Location: Reno Tahoe International Airport

Current Time: Jun 27, 2017 at 5:13:50 am

Latest Report: Jun 27, 2017 at 3:55 am


Visibility: 10 mi

Pressure: 29.93 "Hg (25.28 "Hg at 1425m altitude)

Humidity: 35%

Dew Point: 31 °F

Location of Carson CityLocation

Past Weather in Carson City — Graph

°F

Carson City Temperature Yesterday

Maximum temperature yesterday: 92 °F (at 12:55 pm)
Minimum temperature yesterday: 68 °F (at 5:55 am)
Average temperature yesterday: 79 °F

High & Low Weather Summary for the Past Weeks

 TemperatureHumidityPressure
High102 °F (Jun 20, 3:55 pm)79% (Jun 12, 4:35 am)30.08 "Hg (Jun 12, 4:35 am)
Low40 °F (Jun 13, 4:55 am)8% (Jun 24, 4:55 pm)29.75 "Hg (Jun 21, 4:55 pm)
Average77 °F31%29.92 "Hg
* Reported Jun 12 3:55 am — Jun 27 3:55 am, Carson City. Weather by CustomWeather, © 2017

Note: Actual official high and low records may vary slightly from our data, if they occured in-between our weather recording intervals... More about our weather records

Advertising

Carson City Weather History for the Previous 24 Hours

Scroll right to see more
 ConditionsComfort  
Time TempWeatherWind HumidityBarometerVisibility
3:55 am
Tue, Jun 27
59 °FClear.5 mph35%29.93 "Hg10 mi
2:55 am63 °FClear.3 mph29%29.91 "Hg10 mi
1:55 am68 °FClear.3 mph22%29.90 "Hg10 mi
12:55 am69 °FClear.No wind21%29.90 "Hg10 mi
11:55 pm
Mon, Jun 26
68 °FClear.5 mph23%29.91 "Hg10 mi
10:55 pm73 °FClear.7 mph17%29.91 "Hg10 mi
9:55 pm74 °FClear.3 mph17%29.90 "Hg10 mi
8:55 pm77 °FClear.14 mph14%29.88 "Hg10 mi
7:55 pm81 °FSunny.14 mph11%29.87 "Hg10 mi
6:55 pm84 °FSunny.13 mph10%29.87 "Hg10 mi
5:55 pm86 °FSunny.9 mph11%29.86 "Hg10 mi
4:55 pm88 °FPassing clouds.12 mph11%29.85 "Hg10 mi
3:55 pm90 °FPassing clouds.22 mph12%29.85 "Hg10 mi
2:55 pm91 °FPassing clouds.14 mph12%29.86 "Hg10 mi
1:55 pm91 °FPassing clouds.10 mph12%29.85 "Hg10 mi
12:55 pm92 °FPassing clouds.16 mph10%29.86 "Hg10 mi
11:55 am87 °FPassing clouds.7 mph17%29.88 "Hg10 mi
10:55 am85 °FPassing clouds.5 mph20%29.89 "Hg10 mi
9:55 am82 °FPassing clouds.6 mph26%29.90 "Hg10 mi
8:55 am78 °FPassing clouds.No wind33%29.91 "Hg10 mi
7:55 am74 °FPassing clouds.No wind40%29.92 "Hg10 mi
6:55 am71 °FPassing clouds.No wind44%29.92 "Hg10 mi
5:55 am68 °FPassing clouds.No wind51%29.92 "Hg10 mi
Weather by CustomWeather, © 2017

See weather overviewHow to use our weather pages